User: anonymous   Login
Location: Steilacoom
(47.1700°N, 122.5700°W)
Time: 18:30:41
(UTC-08:00)
Language:

BUGSAT 1 - Orbit

View from above orbital plane
View from above orbital plane
View from above satellite
View from above satellite

Ground track
Ground track

The orbit data is extracted from the following two-line orbital elements,

1 40014U 14033E   20018.84163594  .00000810  00000-0  78283-4 0  9992
2 40014  98.0446 336.5079 0033154  71.9530 288.5311 14.95387167304507
Epoch (UTC): 18 January 2020 20:11:57
Eccentricity: 0.0033154
inclination: 98.0446°
perigee height: 558 km
apogee height: 604 km
right ascension of ascending node: 336.5079°
argument of perigee: 71.9530°
revolutions per day: 14.95387167
mean anomaly at epoch: 288.5311°
orbit number at epoch: 30450

The dashed part of the orbit path shows where the satellite is in the earth's shadow,  

DLR